Sariyog‘och

Uzbekistan     40˚53′04″N   70˚08′02″E
temp.,
°C
wind,
m/s
gust,
m/s
humid.,
%
clouds,
%
prec.,
mm/h
press.,
hPa
HPBL,
m
3 december, thu
thu323:00+1˚ne018599 0.2 102626
02:00+1˚nne018399 0.1 102638
05:00ese128799 0.5 102732
08:00ese1287100 0.4 102839
11:00+1˚nne12100100 0.8 102768
14:00+1˚ene11100100 0.5 102661
17:00ene0299100 1.4 102770
20:00−1˚ese1187100 0.3 102722
4 december, fri
fri423:00−2˚wnw0179100 0.3 102623
02:00−3˚w0181100 0.0 102622
05:00−4˚wsw1193100 0.0 102624
08:00−3˚w0196100 0.0 102758
11:00−2˚wsw1196100 0.0 1027145
14:00−2˚wsw2294100 0.1 1027213
17:00−4˚wsw1289100 0.3 102863
20:00−4˚wsw118669 0.1 102933
5 december, sat
sat523:00−5˚wsw118376 0.1 102929
02:00−5˚wsw1287100 0.1 102967
05:00−5˚wsw1287100 0.4 102967
08:00−5˚w1278100 0.1 103039
11:00−3˚w2370100 0.1 1028432
14:00−3˚wsw2373100 0.1 1027509
17:00−5˚sw1178100 0.3 102827
20:00−5˚ene1275100 0.1 103028
6 december, sun
sun623:00−6˚ene2377100 0.1 102950
02:00−6˚e2385100 0.1 103068
05:00−5˚e2386100 0.3 102950
08:00−4˚e238499 0.1 103040
11:00−1˚e238286 0.1 1028198
14:00e118820 0.0 1027143
17:00−3˚e337620 0.0 102728
20:00−4˚e446731 0.0 102647
7 december, mon
mon723:00−3˚e346265 0.0 102544
02:00−2˚e2259100 0.0 102427
05:00−1˚e1259100 0.0 102322
08:00−2˚nw1167100 0.0 102422
11:00−1˚wnw1177100 0.1 1024102
14:00−2˚w1197100 0.8 1024104
17:00−3˚w1198100 2.6 102654
20:00−3˚wsw1198100 1.9 102875